Location: Mesa Vista Observatory
(35.5777°N, 105.6987°W)
Time: 12:37:33
(UTC-06:00)

Hubble Space Telescope - Visible Passes

Search period start: 18 June 2019 00:00
Search period end: 28 June 2019 00:00
Orbit: 536 x 540 km, 28.5° (Epoch: 18 June)

Date Brightness Start Highest point End Pass type
(mag) Time Alt. Az. Time Alt. Az. Time Alt. Az.
18 Jun 1.7 04:07:29 29° S 04:07:34 29° S 04:11:08 10° SE visible
19 Jun 2.0 03:57:49 25° SSE 03:57:49 25° SSE 04:00:29 10° SE visible
20 Jun 2.6 03:48:21 18° SSE 03:48:21 18° SSE 03:49:47 10° SE visible
24 Jun 2.5 21:48:25 10° SSW 21:50:10 16° S 21:50:10 16° S visible
25 Jun 2.1 21:37:30 10° SW 21:40:34 20° SSE 21:40:55 20° SSE visible
26 Jun 2.0 21:26:41 10° SW 21:29:58 23° SSE 21:31:26 19° SE visible
27 Jun 1.9 21:15:56 10° SW 21:19:22 25° S 21:21:45 15° SE visible
27 Jun 3.2 22:56:31 10° WSW 22:57:06 13° WSW 22:57:06 13° WSW visible
